Location: Lourdes
(43.1000°N, 0.0500°W)
Time: 16:44:28
(UTC+00:00)

Cosmos 1933 Rocket - Pass Details

Date: 30 November 2020
Orbit: 605 x 631 km, 82.5° (Epoch: 23 January)

Event Time Altitude Azimuth Distance (km) Brightness Sun altitude
Rises 17:20:15 0° 2° (N) 2,934 6.8 -9.7°
Reaches altitude 10° 17:22:47 10° 14° (NNE) 2,021 5.9 -10.1°
Maximum altitude 17:26:38 28° 74° (ENE) 1,201 4.5 -10.8°
Drops below altitude 10° 17:30:27 10° 133° (SE) 2,002 5.9 -11.4°
Sets 17:32:56 0° 145° (SE) 2,901 6.8 -11.9°
